Flag for Germany Weather past 2 weeks in Nuremberg, Bavaria, Germany

Now
54 °F

Passing clouds.


Feels Like: 54 °F
Forecast: 38 / 43 °F
Wind: 1 mph from North

Location: Nuernberg

Current Time: Oct 21, 2014 at 2:45:32 AM

Latest Report: Oct 21, 2014 at 2:20 AM


Visibility: N/A

Pressure: 29.98 "Hg

Humidity: 100%

Dew point: 54 °F

Location of NurembergLocation

Historic Weather in Nuremberg — Graph

°F

Nuremberg temperature yesterday

Maximum temperature yesterday: 63 °F (at 3:20 PM)
Minimum temperature yesterday: 54 °F (at 12:50 AM)
Average temperature yesterday: 59 °F

Past Weeks' High & Low Weather Summary

 TemperatureHumidityPressure
High77 °F (Oct 9, 2:20 PM)100% (Oct 6, 3:20 AM)30.24 "Hg (Oct 6, 3:20 AM)
Low41 °F (Oct 6, 6:50 AM)44% (Oct 9, 3:20 PM)29.77 "Hg (Oct 13, 10:20 PM)
Average58 °F89%29.93 "Hg
* Reported Oct 6 1:20 AM — Oct 21 1:20 AM, Nuremberg, Weather by CustomWeather, © 2014

Note: Actual official high and low records may vary slightly from our data, if they occured in-between our weather recording intervals... More about our weather records

Advertising

Nuremberg weather history for previous 24 hours

 ConditionsComfort  
Time TempWeatherWind HumidityBarometerVisibility
1:20 AM
Oct 21
55 °FFog.2 mph94%29.98 "HgN/A
12:50 AM57 °FFog.1 mph88%29.98 "HgN/A
12:20 AM55 °FFog.2 mph100%29.98 "HgN/A
11:50 PM
Oct 20
55 °FFog.1 mph94%29.98 "HgN/A
11:20 PM57 °FPartly cloudy.1 mph94%29.98 "HgN/A
10:50 PM57 °FPartly cloudy.3 mph94%29.98 "HgN/A
10:20 PM57 °FFog.3 mph94%29.98 "HgN/A
9:50 PM57 °FPartly cloudy.3 mph94%30.01 "HgN/A
9:20 PM59 °FPassing clouds.2 mph94%30.01 "HgN/A
8:50 PM59 °FPassing clouds.2 mph94%30.01 "HgN/A
8:20 PM59 °FPartly cloudy.2 mph94%29.98 "HgN/A
7:50 PM59 °FPassing clouds.2 mph88%30.01 "HgN/A
7:20 PM59 °FPartly cloudy.2 mph88%30.01 "HgN/A
6:50 PM61 °FPassing clouds.7 mph83%30.01 "HgN/A
6:20 PM61 °FPassing clouds.6 mph88%30.01 "HgN/A
5:50 PM61 °FSunny.6 mph88%30.01 "Hg10 mi
5:20 PM63 °FPartly sunny.7 mph83%30.04 "HgN/A
4:50 PM63 °FSunny.8 mph88%30.04 "Hg10 mi
4:20 PM63 °FPartly sunny.8 mph88%30.04 "HgN/A
3:50 PM63 °FPartly sunny.8 mph88%30.04 "HgN/A
3:20 PM63 °FPartly sunny.7 mph88%30.04 "HgN/A
2:50 PM61 °FBroken clouds.6 mph94%30.04 "HgN/A
2:20 PM61 °FBroken clouds.6 mph94%30.07 "HgN/A
1:50 PM61 °FLight rain. Partly sunny.3 mph94%30.07 "HgN/A
1:20 PM59 °FScattered clouds.2 mph100%30.07 "HgN/A
12:50 PM59 °FLight rain. Broken clouds.3 mph94%30.09 "HgN/A
12:20 PM59 °FLight rain. Partly sunny.1 mph94%30.09 "HgN/A
11:50 AM59 °FLight rain. Partly sunny.1 mph94%30.09 "HgN/A
11:20 AM57 °FLight rain. Partly sunny.2 mph100%30.09 "HgN/A
10:50 AM59 °FDrizzle. Partly sunny.2 mph94%30.09 "HgN/A
10:20 AM57 °FRain. Partly sunny.5 mph100%30.09 "HgN/A
9:50 AM59 °FLight rain. Partly sunny.3 mph94%30.09 "HgN/A
9:20 AM61 °FLight rain. Broken clouds.5 mph88%30.09 "HgN/A
8:50 AM61 °FLight rain. Broken clouds.3 mph88%30.09 "HgN/A
8:20 AM61 °FPassing clouds.7 mph88%30.09 "HgN/A
7:50 AM61 °FPassing clouds.7 mph88%30.07 "HgN/A
7:20 AM61 °FPassing clouds.7 mph83%30.07 "HgN/A
6:50 AM61 °FPassing clouds.6 mph88%30.07 "HgN/A
5:20 AM61 °FFog.6 mph88%30.07 "HgN/A
4:50 AM61 °FFog.2 mph83%30.07 "HgN/A
4:20 AM61 °FFog.2 mph88%30.09 "HgN/A
3:50 AM59 °FFog.2 mph88%30.09 "HgN/A
3:20 AM57 °FFog.2 mph88%30.09 "HgN/A
2:50 AM57 °FFog.3 mph88%30.09 "HgN/A
2:20 AM59 °FFog.1 mph82%30.09 "HgN/A
Weather by CustomWeather, © 2014

See weather overviewHow to use our weather pages